Wind_Speed
14 15 15 16 15 15 15 15 14 13 13 12 12 11 11 10 9 10 10 10 10 10 9 9 10 10 9 9 8 7 7 7 6 6 6 5 5 5 4 4 3 3 3
17 17 17 17 16 16 16 16 15 15 15 14 13 13 12 12 11 11 11 11 11 11 10 10 10 10 10 10 9 8 7 7 7 7 6 6 5 5 5 4 4 3 3
20 20 19 19 18 18 18 18 17 16 16 15 15 15 14 14 13 13 12 12 12 12 12 11 11 11 10 10 10 9 9 8 8 8 7 7 6 5 5 5 5 4 4
22 22 22 21 21 20 20 20 20 19 18 17 17 17 16 16 15 15 15 14 14 13 13 12 12 12 11 11 11 10 10 9 9 9 8 8 7 7 6 6 5 5 5
24 24 24 23 23 22 22 22 22 21 20 19 19 18 18 17 17 16 16 16 15 15 14 14 13 13 12 12 12 12 11 10 10 9 9 9 9 8 7 7 6 6 6
25 25 25 25 25 24 24 24 24 23 23 22 21 20 20 19 18 18 18 17 17 17 16 16 15 14 14 14 13 13 12 12 12 11 10 10 10 9 9 8 7 7 7
26 26 26 26 26 26 25 25 26 26 25 24 23 23 22 21 20 20 19 19 18 18 18 18 17 16 16 15 15 14 14 13 13 12 12 11 11 10 10 10 9 8 8
26 26 27 27 27 27 27 27 27 28 27 26 25 25 24 24 22 21 21 21 20 20 19 19 19 18 18 18 17 16 15 15 15 14 13 13 12 11 11 10 10 10 9
28 27 27 27 28 29 28 28 28 29 28 27 27 26 26 26 25 24 22 22 22 22 21 21 21 21 20 20 19 18 17 16 16 16 15 14 14 13 12 11 11 11 11
28 28 28 28 28 29 29 28 28 29 29 29 28 27 27 27 27 26 25 24 24 23 23 23 22 23 22 21 21 20 19 18 17 17 16 16 15 14 14 13 13 12 12
29 29 29 29 29 30 31 30 28 29 29 30 29 29 28 29 29 28 27 26 25 26 26 25 24 24 24 23 23 22 21 19 19 18 18 17 16 16 16 15 15 15 14
29 30 30 30 30 30 31 31 30 30 30 30 30 30 29 29 30 29 29 28 27 27 27 27 27 26 25 25 24 24 23 22 21 20 19 19 18 18 17 17 17 17 16
30 30 30 31 30 30 31 31 31 30 30 30 31 31 30 30 30 30 30 30 29 29 29 29 29 28 27 26 26 26 25 24 23 22 22 21 20 20 19 19 18 18 18
31 31 31 31 31 31 32 31 31 30 30 31 32 31 30 30 30 30 31 31 30 30 30 30 30 30 29 28 27 27 27 27 26 25 24 23 23 22 22 21 21 20 20
30 31 32 31 32 33 33 32 32 32 32 31 32 32 32 31 31 31 32 32 32 31 32 31 31 31 30 30 30 29 28 28 28 27 27 26 25 25 24 24 23 23 23
30 31 32 32 32 33 33 33 33 33 33 33 33 32 32 33 32 33 33 32 32 32 32 33 33 32 32 32 31 31 30 30 30 29 29 29 28 28 27 27 26 25 25
30 31 32 33 33 33 34 34 33 33 34 34 33 32 33 33 32 33 34 34 33 33 33 34 34 34 34 34 33 33 32 33 32 32 31 31 31 30 30 29 29 28 28
30 30 31 32 33 34 34 34 33 34 35 35 34 34 34 34 34 34 35 36 35 34 34 34 35 36 35 35 35 34 34 34 34 34 34 34 33 33 33 32 32 31 31
30 30 31 32 32 33 35 35 35 35 35 36 36 35 34 35 35 36 36 37 37 37 36 36 36 38 37 38 37 36 36 36 36 36 36 36 36 36 36 36 35 34 33
29 30 30 31 31 31 33 35 35 35 36 37 37 37 35 36 36 36 37 37 38 38 39 39 38 39 39 39 39 38 38 38 38 39 38 38 38 38 38 38 37 36 36
28 29 29 30 31 32 32 32 34 34 35 36 36 36 36 36 36 37 37 37 38 38 38 39 39 40 41 41 40 40 40 40 40 40 39 39 39 39 40 39 39 39 39
28 29 30 30 30 30 31 32 33 34 34 35 36 35 36 36 37 37 37 38 38 38 38 39 40 40 41 41 41 40 40 40 41 41 41 41 41 41 40 40 40 41 41
28 29 29 29 29 30 31 32 32 33 33 34 35 35 35 36 37 37 37 37 37 38 38 38 39 39 41 42 42 42 42 41 41 40 41 41 41 41 41 42 42 42 42
29 29 28 28 29 29 30 31 32 33 34 34 34 34 35 35 36 36 36 36 37 38 39 39 39 39 40 41 42 43 43 43 42 42 41 41 42 41 41 41 42 42 42
29 29 28 29 28 28 29 31 31 32 32 33 33 34 34 34 34 35 36 37 37 38 39 39 39 40 40 40 41 42 43 43 43 43 43 43 42 42 42 42 42 42 43
28 29 29 29 29 29 30 31 31 32 32 32 34 34 34 35 35 35 36 36 37 38 39 39 39 40 41 41 41 41 43 43 43 43 44 45 44 43 43 44 44 44 44
Wind_Direction
257 254 251 250 249 248 246 244 243 240 239 238 236 235 232 233 234 233 228 225 219 217 216 215 215 213 210 209 206 206 204 201 201 199 195 192 190 187 185 183 180 176 174
257 254 251 249 247 245 245 245 244 243 240 239 237 235 233 233 234 233 230 228 225 222 220 218 217 217 215 214 212 212 211 209 209 206 203 202 200 198 196 197 196 191 190
257 254 251 249 247 245 244 244 243 242 241 239 239 238 237 235 234 236 234 233 230 226 222 221 220 220 219 216 216 216 215 214 214 211 209 209 209 210 210 213 214 212 210
257 254 251 249 247 247 244 243 243 243 242 241 241 240 239 238 237 239 237 235 234 230 226 224 222 222 222 219 218 218 218 218 217 216 215 216 216 217 221 223 224 222 221
256 254 252 250 249 248 248 246 243 243 243 243 243 242 241 240 239 239 239 237 236 232 230 229 226 224 223 221 220 220 221 222 220 220 220 220 221 222 225 228 229 228 227
256 254 254 252 250 249 249 248 245 244 244 243 243 243 242 241 241 240 240 237 236 233 232 232 230 228 226 225 223 224 225 226 226 225 224 224 225 227 229 230 231 233 233
256 255 255 254 252 251 249 249 247 245 245 244 244 243 243 243 243 242 240 239 237 234 233 234 235 233 231 229 227 227 228 228 228 228 228 228 229 231 234 235 235 236 237
257 256 256 255 253 252 250 249 248 245 244 244 243 243 243 243 243 242 241 241 240 238 236 236 236 235 235 234 232 230 231 232 231 231 231 232 233 235 236 237 238 238 239
258 257 256 255 254 253 251 249 248 245 243 243 243 243 243 242 242 242 242 242 241 240 238 237 237 236 236 236 235 234 235 236 235 233 234 234 236 238 238 239 240 241 244
259 258 257 256 256 254 251 249 248 244 243 243 243 243 244 244 243 242 242 243 242 242 240 238 238 237 237 237 237 236 236 237 238 237 237 237 238 240 241 242 244 246 247
260 258 257 257 257 255 252 249 249 245 244 244 244 245 245 245 244 243 242 242 243 242 241 240 239 239 238 238 238 237 238 238 239 239 240 240 241 242 244 245 247 249 250
261 259 258 258 259 257 253 251 249 246 245 245 245 245 246 246 245 244 243 243 243 243 242 241 240 239 239 239 239 238 239 240 241 242 243 244 245 246 247 248 249 251 253
263 261 260 259 258 257 255 253 251 249 245 245 245 245 246 247 246 245 244 243 244 244 242 241 240 240 239 239 239 239 239 240 241 243 243 244 247 248 249 249 251 252 254
264 261 260 259 258 255 254 252 251 250 247 244 243 245 247 248 246 244 243 244 245 245 243 242 241 240 240 240 240 241 241 241 242 243 243 245 248 250 250 251 252 254 255
265 262 260 261 259 255 253 252 251 250 247 244 245 245 246 247 247 244 243 244 244 246 244 241 241 240 240 240 241 242 243 243 243 245 246 247 249 250 251 252 253 255 256
265 262 260 261 259 256 254 253 251 251 248 245 245 246 246 246 247 246 244 244 245 246 246 243 240 240 240 241 243 243 244 244 245 247 248 248 250 251 251 253 254 256 257
264 263 262 262 261 258 254 253 251 251 248 246 245 245 247 247 248 248 246 244 245 245 246 244 241 240 241 241 243 243 244 245 245 247 249 250 251 252 252 254 256 257 258
264 264 264 263 261 259 255 252 252 250 248 247 246 248 248 247 248 249 247 246 245 244 245 245 243 242 243 243 243 245 245 246 247 247 249 251 252 253 254 255 257 258 259
265 264 265 264 261 258 255 251 251 250 249 248 247 249 250 249 250 249 249 248 248 248 247 246 244 243 244 245 246 248 248 248 249 249 250 251 253 254 255 257 258 258 259
265 264 264 264 262 260 257 253 250 250 250 249 247 250 251 250 250 251 250 249 249 249 249 248 247 245 245 246 248 250 250 250 251 251 252 252 253 254 255 256 257 257 258
266 264 263 264 264 262 260 256 253 251 252 249 248 250 251 251 251 251 250 250 249 249 250 249 248 248 248 249 251 252 253 253 252 252 253 253 254 255 255 255 257 257 258
267 266 265 265 265 263 260 257 256 253 254 251 249 251 252 252 251 251 251 250 249 250 250 249 250 250 250 250 252 253 254 254 254 253 254 254 254 255 256 257 258 258 258
269 268 267 266 266 265 261 257 257 254 255 253 250 251 252 252 252 252 252 251 250 250 250 250 251 251 251 252 253 255 256 255 255 256 255 254 255 255 257 258 259 260 259
269 268 266 265 266 266 262 258 256 256 255 254 252 251 251 251 251 252 252 252 251 251 252 252 252 252 253 254 254 256 257 256 255 255 254 254 254 255 258 259 260 260 259
269 266 265 264 265 265 262 258 256 256 255 253 252 251 251 251 251 252 252 252 253 253 253 254 254 254 254 255 256 256 256 257 256 255 254 254 256 257 258 258 258 259 259
271 266 264 264 264 264 262 258 257 256 257 255 254 253 252 252 253 254 255 255 255 255 255 255 255 254 254 255 257 257 256 257 257 256 256 256 256 257 257 258 258 259 260
Height
5835 5836 5836 5837 5838 5839 5840 5841 5842 5843 5844 5844 5845 5846 5847 5847 5848 5849 5849 5850 5851 5852 5853 5853 5854 5855 5856 5857 5858 5859 5860 5861 5862 5862 5863 5864 5865 5865 5866 5867 5867 5868 5868
5832 5833 5833 5834 5835 5836 5837 5838 5839 5840 5841 5842 5843 5844 5845 5846 5847 5847 5848 5849 5850 5851 5852 5852 5853 5854 5855 5856 5857 5858 5859 5860 5861 5862 5862 5863 5864 5865 5865 5866 5867 5867 5868
5828 5829 5830 5831 5832 5833 5834 5835 5836 5838 5839 5840 5841 5842 5843 5844 5845 5846 5846 5847 5848 5849 5850 5851 5852 5853 5854 5855 5856 5857 5858 5859 5860 5861 5862 5863 5863 5864 5865 5865 5866 5867 5867
5824 5825 5826 5827 5828 5829 5831 5832 5833 5834 5835 5837 5838 5839 5840 5841 5842 5843 5844 5845 5846 5847 5848 5849 5850 5851 5852 5853 5854 5855 5856 5858 5859 5860 5861 5862 5863 5863 5864 5865 5866 5866 5867
5819 5820 5821 5823 5824 5825 5826 5828 5829 5831 5832 5833 5835 5836 5837 5839 5840 5841 5842 5843 5844 5845 5846 5847 5848 5849 5851 5852 5853 5854 5855 5856 5857 5858 5859 5861 5861 5862 5863 5864 5865 5865 5866
5814 5815 5816 5818 5819 5820 5822 5823 5825 5826 5828 5829 5831 5832 5834 5835 5837 5838 5839 5839 5841 5842 5844 5845 5846 5847 5848 5850 5851 5852 5853 5854 5856 5857 5858 5859 5860 5861 5862 5862 5863 5864 5865
5809 5810 5811 5812 5813 5815 5816 5818 5819 5821 5823 5825 5827 5828 5830 5831 5833 5834 5835 5836 5838 5839 5840 5842 5843 5845 5846 5847 5848 5850 5851 5852 5853 5855 5856 5857 5858 5859 5860 5861 5862 5862 5863
5803 5804 5805 5806 5808 5809 5811 5812 5814 5816 5818 5820 5822 5823 5825 5827 5829 5830 5832 5833 5834 5836 5837 5839 5840 5842 5843 5844 5846 5847 5848 5850 5851 5853 5854 5855 5856 5857 5858 5859 5860 5861 5861
5797 5798 5799 5800 5802 5803 5805 5806 5808 5810 5812 5814 5816 5818 5820 5822 5824 5826 5827 5829 5830 5832 5833 5835 5836 5838 5840 5841 5842 5844 5845 5847 5848 5850 5851 5853 5854 5855 5856 5857 5858 5859 5859
5791 5792 5793 5794 5795 5797 5798 5799 5801 5803 5806 5808 5810 5812 5814 5816 5818 5821 5823 5824 5826 5827 5829 5831 5832 5834 5836 5837 5839 5840 5842 5844 5845 5847 5848 5850 5851 5852 5853 5854 5855 5856 5857
5785 5786 5787 5788 5789 5790 5791 5793 5794 5797 5799 5802 5804 5807 5808 5810 5813 5815 5817 5819 5821 5822 5824 5826 5828 5830 5831 5833 5835 5837 5839 5840 5842 5844 5845 5847 5848 5849 5850 5851 5852 5853 5854
5778 5779 5780 5781 5782 5783 5784 5787 5788 5791 5793 5795 5798 5800 5802 5804 5807 5809 5811 5813 5815 5817 5819 5821 5823 5825 5827 5829 5831 5833 5835 5837 5838 5840 5842 5843 5845 5846 5847 5848 5849 5850 5851
5771 5772 5773 5774 5775 5776 5778 5780 5782 5784 5786 5789 5791 5793 5796 5798 5800 5802 5805 5807 5809 5811 5813 5815 5818 5820 5822 5824 5826 5828 5830 5832 5834 5836 5838 5839 5841 5842 5843 5844 5845 5846 5847
5764 5764 5766 5767 5768 5769 5771 5773 5775 5777 5779 5782 5784 5787 5789 5791 5793 5796 5798 5800 5802 5804 5807 5809 5812 5814 5816 5819 5821 5823 5825 5827 5829 5831 5833 5835 5836 5838 5839 5840 5841 5842 5843
5757 5758 5759 5759 5760 5762 5764 5765 5768 5770 5772 5775 5777 5780 5782 5785 5787 5789 5791 5793 5796 5798 5800 5802 5805 5808 5810 5813 5815 5817 5820 5822 5824 5826 5828 5829 5831 5832 5834 5835 5836 5837 5838
5750 5751 5751 5752 5753 5754 5756 5758 5760 5762 5765 5768 5770 5772 5775 5778 5780 5782 5784 5787 5789 5791 5793 5796 5798 5801 5804 5807 5809 5811 5814 5816 5818 5820 5822 5823 5825 5827 5828 5829 5831 5832 5833
5743 5743 5744 5745 5746 5747 5749 5751 5753 5755 5757 5760 5763 5765 5768 5770 5773 5775 5777 5780 5782 5785 5787 5789 5792 5794 5797 5800 5802 5804 5807 5809 5811 5813 5815 5817 5819 5820 5822 5823 5825 5826 5827
5736 5736 5736 5737 5738 5739 5740 5743 5745 5747 5750 5752 5755 5757 5760 5762 5765 5767 5770 5772 5775 5777 5779 5782 5784 5787 5790 5792 5795 5797 5799 5802 5804 5806 5808 5810 5811 5813 5815 5816 5818 5819 5820
5728 5728 5729 5729 5730 5731 5732 5734 5737 5740 5742 5744 5747 5750 5752 5755 5757 5759 5762 5765 5767 5769 5772 5774 5777 5779 5782 5784 5787 5789 5792 5794 5796 5798 5800 5802 5804 5805 5807 5808 5810 5811 5813
5721 5721 5721 5721 5722 5723 5724 5726 5729 5732 5734 5736 5739 5742 5744 5747 5749 5752 5754 5756 5759 5761 5764 5766 5768 5771 5774 5776 5778 5781 5783 5785 5787 5789 5791 5793 5795 5796 5798 5800 5801 5803 5804
5713 5714 5714 5714 5714 5715 5717 5718 5720 5723 5725 5728 5730 5733 5735 5738 5741 5743 5745 5748 5750 5753 5755 5757 5760 5762 5765 5767 5769 5772 5774 5776 5778 5780 5782 5783 5785 5787 5788 5790 5791 5793 5795
5706 5707 5707 5707 5707 5708 5709 5710 5712 5714 5717 5719 5721 5724 5726 5729 5731 5733 5736 5738 5741 5744 5746 5748 5750 5752 5755 5757 5759 5762 5764 5767 5768 5770 5772 5773 5775 5777 5778 5780 5781 5783 5785
5699 5700 5700 5700 5700 5701 5701 5703 5704 5706 5708 5710 5713 5715 5718 5720 5722 5724 5727 5729 5731 5734 5736 5739 5741 5743 5745 5747 5749 5751 5754 5756 5758 5761 5762 5763 5765 5767 5768 5770 5771 5773 5774
5692 5692 5693 5693 5693 5693 5694 5695 5697 5698 5700 5702 5704 5706 5709 5711 5713 5715 5718 5720 5723 5725 5727 5729 5731 5733 5735 5737 5739 5741 5743 5745 5747 5750 5752 5754 5755 5757 5758 5759 5761 5762 5763
5684 5685 5685 5686 5686 5687 5687 5687 5688 5690 5692 5694 5696 5698 5700 5703 5705 5707 5709 5711 5713 5715 5717 5719 5721 5723 5725 5727 5729 5730 5732 5734 5736 5738 5741 5743 5745 5746 5748 5749 5750 5751 5752
5676 5677 5677 5678 5678 5679 5679 5680 5681 5683 5684 5686 5688 5690 5692 5694 5696 5698 5700 5702 5704 5706 5707 5709 5711 5713 5715 5717 5718 5720 5721 5723 5725 5727 5729 5731 5733 5735 5736 5738 5739 5740 5741